Terre Haute International Hulman Field Terre Haute US
ICAO: KHUF
IATA: HUF
Category: Medium
Scheduled Services: No

Elevation: 589 ft
TransAlt. 18000 ft.

Airport Communications:
APP/DEP:119.8
ASOS:127.5
ATIS:127.5
GND:121.6
RACER OPS:143.55
RDO:122.2
TWR:118.3
UNICOM:122.95

KHUF Zoom In..

Runways:

(A) RW 05 length 9020 ft width 150 ft
ILS 109.70 / hdg 49

(B) RW 14 length 7200 ft width 150 ft
---- / hdg 137

(C) RW 18 length 4000 ft width 150 ft
---- / hdg 182

(D) RW 23 length 9020 ft width 150 ft
---- / hdg 229

(E) RW 32 length 7200 ft width 150 ft
---- / hdg 317

(F) RW 36 length 4000 ft width 150 ft
---- / hdg 2

Location; KHUF
Day. 14 / Time. 00.53 Zulu
* Altimeter: 30.01
* Temperature: 24° c. 75.2°f.
* Wind from: 010° Speed 05 kn.
Dewpoint: 22° c.
Visibility: 10 Statute Miles.
Clouds: Scattered 3700 ft.

KHUF 140053Z AUTO 01005KT 10SM SCT037 24/22 A3001 RMK AO2 SLP159 T02440217

Going to: --> -->


Wind From 010°
Speed 05 kn.

 
 
jpsmedia worldairports.se 2020   terms of use